User: anonymous   Login
Location: Newark
(44.6028°N, 124.0883°W)
Time: 15:17:52
(UTC+00:00)
Language:

N. Korean satellite - Orbit

View from above orbital plane
View from above orbital plane
View from above satellite
View from above satellite

Ground track
Ground track

The orbit data is extracted from the following two-line orbital elements,

1 39026U 12072A   21163.05720988  .00002523  00000-0  87178-4 0  9991
2 39026  97.2437 156.0525 0037024  45.8561 314.5714 15.30205037472265
Epoch (UTC): 12 June 2021 01:22:22
Eccentricity: 0.0037024
inclination: 97.2437°
perigee height: 450 km
apogee height: 500 km
right ascension of ascending node: 156.0525°
argument of perigee: 45.8561°
revolutions per day: 15.30205037
mean anomaly at epoch: 314.5714°
orbit number at epoch: 47226

The dashed part of the orbit path shows where the satellite is in the earth's shadow,  

DLR